Weather History for Minot AFB, ND

Change the Weather History Date:

Sunday, January 6, 2013

  Actual Average Record
Temperature  
Mean Temperature 22 °F -  
Max Temperature 30 °F 15 °F 48 °F (2006)
Min Temperature 13 °F 0 °F -22 °F (2014)
Degree Days  
Heating Degree Days 44    
Moisture  
Dew Point 15 °F    
Average Humidity 90    
Maximum Humidity 100    
Minimum Humidity 67    
Precipitation  
Precipitation 0.00 in - - ()
Sea Level Pressure  
Sea Level Pressure 30.08 in    
Wind  
Wind Speed 9 mph (SSW)    
Max Wind Speed 21 mph    
Max Gust Speed 29 mph    
Visibility 5 miles    
Events Fog    
Averages and records for this station are not official NWS values.
T = Trace of Precipitation, MM = Missing Value Source: NWS Daily Summary

Daily Weather History Graph

Daily Weather History Graph

Search for Another Location

Airport:

Trip Planner

Search our weather history database for the weather conditions in past years. The results will help you decide how hot, cold, wet, or windy it might be!

Date:

Astronomy

Jan. 06, 2013 Rise Set
Actual Time 8:36 AM CST 5:07 PM CST
Civil Twilight 7:59 AM CST 5:43 PM CST
Nautical Twilight 7:20 AM CST 6:22 PM CST
Astronomical Twilight 6:42 AM CST 7:00 PM CST
Moon 2:41 AM CST (1/6) 12:44 PM CST (1/6)
Length of Visible Light 9h 43m
Length of Day
8h 30m
Waning Crescent, 33% of the Moon is Illuminated
Jan 6
Waning Crescent
Jan 11
New
Jan 18
First Quarter
Jan 26
Full
Feb 3
Last Quarter

Hourly Weather History & Observations

Time (CST) Temp. Windchill Dew Point Humidity Pressure Visibility Wind Dir Wind Speed Gust Speed Precip Events Conditions
12:55 AM 17.2 °F 2.7 °F 14.5 °F 89% 30.20 in 10.0 mi WNW 15.0 mph - N/A   Overcast
1:55 AM 17.8 °F 6.6 °F 15.3 °F 90% 30.19 in 10.0 mi WNW 9.2 mph - N/A   Overcast
2:55 AM 18.0 °F 7.7 °F 15.8 °F 91% 30.21 in 10.0 mi West 8.1 mph - N/A   Overcast
3:13 AM 17.6 °F 7.3 °F 15.8 °F 93% 30.20 in 10.0 mi West 8.1 mph - N/A   Overcast
3:53 AM 17.6 °F 8.2 °F 15.8 °F 93% 30.21 in 10.0 mi West 6.9 mph - N/A   Overcast
3:55 AM 18.3 °F 9.1 °F 16.3 °F 92% 30.21 in 10.0 mi West 6.9 mph - N/A   Overcast
4:21 AM 17.6 °F 7.3 °F 15.8 °F 93% 30.21 in 10.0 mi WSW 8.1 mph - N/A   Overcast
4:35 AM 17.6 °F 7.3 °F 15.8 °F 93% 30.20 in 9.0 mi WSW 8.1 mph - N/A   Overcast
4:45 AM 17.6 °F 8.2 °F 15.8 °F 93% 30.20 in 8.0 mi WSW 6.9 mph - N/A   Overcast
4:55 AM 17.8 °F 7.5 °F 16.3 °F 94% 30.20 in 7.0 mi WSW 8.1 mph - N/A   Overcast
5:04 AM 17.6 °F 9.3 °F 15.8 °F 93% 30.19 in 5.0 mi WSW 5.8 mph - N/A   Overcast
5:13 AM 17.6 °F 8.2 °F 15.8 °F 93% 30.19 in 5.0 mi WSW 6.9 mph - N/A   Overcast
5:27 AM 17.6 °F 8.2 °F 15.8 °F 93% 30.18 in 4.0 mi SW 6.9 mph - N/A   Light Freezing Drizzle
5:30 AM 17.6 °F 9.3 °F 15.8 °F 93% 30.18 in 4.0 mi SW 5.8 mph - N/A   Light Freezing Drizzle
5:55 AM 17.1 °F 8.7 °F 15.4 °F 93% 30.17 in 3.0 mi SW 5.8 mph - 0.00 in   Light Freezing Drizzle
6:12 AM 17.6 °F 8.2 °F 15.8 °F 93% 30.16 in 2.5 mi WSW 6.9 mph - N/A   Light Freezing Drizzle
6:13 AM 17.6 °F 8.2 °F 15.8 °F 93% 30.16 in 2.5 mi WSW 6.9 mph - N/A   Light Freezing Drizzle
6:19 AM 15.8 °F 7.2 °F 15.8 °F 100% 30.17 in 2.5 mi WSW 5.8 mph - N/A   Light Freezing Drizzle
6:39 AM 15.8 °F 8.6 °F 14.0 °F 93% 30.16 in 2.5 mi SSW 4.6 mph - N/A   Light Freezing Drizzle
6:52 AM 15.8 °F 7.2 °F 14.0 °F 93% 30.16 in 2.5 mi SSW 5.8 mph - N/A   Light Freezing Drizzle
6:55 AM 16.5 °F 8.1 °F 14.7 °F 93% 30.16 in 2.5 mi SSW 5.8 mph - 0.00 in   Light Freezing Drizzle
6:56 AM 15.8 °F 8.6 °F 14.0 °F 93% 30.16 in 3.0 mi SW 4.6 mph - N/A   Light Freezing Drizzle
6:59 AM 15.8 °F 8.6 °F 14.0 °F 93% 30.15 in 4.0 mi SSW 4.6 mph - N/A   Light Freezing Drizzle
7:08 AM 15.8 °F 7.2 °F 14.0 °F 93% 30.15 in 2.5 mi SSW 5.8 mph - N/A   Light Freezing Drizzle
7:10 AM 15.8 °F 7.2 °F 14.0 °F 93% 30.15 in 2.0 mi SSW 5.8 mph - N/A   Light Freezing Drizzle
7:12 AM 15.8 °F 8.6 °F 14.0 °F 93% 30.14 in 1.8 mi SSW 4.6 mph - N/A   Light Freezing Drizzle
7:13 AM 15.8 °F 8.6 °F 14.0 °F 93% 30.14 in 1.8 mi SSW 4.6 mph - N/A   Light Freezing Drizzle
7:55 AM 16.0 °F 7.4 °F 14.2 °F 93% 30.13 in 1.8 mi SSE 5.8 mph - 0.00 in   Light Freezing Drizzle
8:03 AM 15.8 °F 5.1 °F 14.0 °F 93% 30.12 in 1.2 mi SSE 8.1 mph - N/A   Light Freezing Drizzle
8:12 AM 15.8 °F 4.2 °F 14.0 °F 93% 30.12 in 1.5 mi SSE 9.2 mph - N/A   Light Freezing Drizzle
8:13 AM 15.8 °F 4.2 °F 14.0 °F 93% 30.12 in 1.5 mi SSE 9.2 mph - N/A   Light Freezing Drizzle
8:15 AM 15.8 °F 4.2 °F 14.0 °F 93% 30.12 in 2.0 mi South 9.2 mph - N/A   Light Freezing Drizzle
8:18 AM 15.8 °F 5.1 °F 14.0 °F 93% 30.12 in 3.0 mi SSE 8.1 mph - N/A   Light Freezing Drizzle
8:19 AM 15.8 °F 5.1 °F 14.0 °F 93% 30.12 in 4.0 mi South 8.1 mph - N/A   Light Freezing Drizzle
8:24 AM 15.8 °F 5.1 °F 14.0 °F 93% 30.12 in 2.5 mi SSE 8.1 mph - N/A   Light Freezing Drizzle
8:26 AM 15.8 °F 5.1 °F 14.0 °F 93% 30.12 in 1.8 mi SSE 8.1 mph - N/A   Light Freezing Drizzle
8:28 AM 15.8 °F 4.2 °F 14.0 °F 93% 30.12 in 1.2 mi SSE 9.2 mph - N/A   Light Freezing Drizzle
8:30 AM 15.8 °F 4.2 °F 14.0 °F 93% 30.12 in 1.0 mi SSE 9.2 mph - N/A   Light Freezing Drizzle
8:32 AM 15.8 °F 3.4 °F 14.0 °F 93% 30.12 in 0.8 mi SSE 10.4 mph - N/A   Light Freezing Drizzle
8:34 AM 15.8 °F 4.2 °F 14.0 °F 93% 30.12 in 0.8 mi South 9.2 mph - N/A   Light Freezing Drizzle
8:35 AM 15.8 °F 4.2 °F 14.0 °F 93% 30.12 in 0.8 mi South 9.2 mph - N/A   Light Freezing Drizzle
8:42 AM 15.8 °F 3.4 °F 14.0 °F 93% 30.12 in 0.8 mi SSE 10.4 mph - N/A   Light Freezing Drizzle
8:52 AM 15.8 °F 4.2 °F 14.0 °F 93% 30.11 in 0.8 mi SSE 9.2 mph - N/A   Light Freezing Drizzle
8:54 AM 15.8 °F 4.2 °F 14.0 °F 93% 30.11 in 0.8 mi SSE 9.2 mph - N/A   Light Freezing Drizzle
8:55 AM 15.3 °F 3.5 °F 13.5 °F 93% 30.11 in 0.8 mi SSE 9.2 mph - 0.00 in   Light Freezing Drizzle
8:58 AM 15.8 °F 3.4 °F 14.0 °F 93% 30.10 in 1.0 mi SSE 10.4 mph - N/A   Light Freezing Drizzle
9:05 AM 15.8 °F 3.4 °F 14.0 °F 93% 30.10 in 0.8 mi SSE 10.4 mph - N/A   Light Freezing Drizzle
9:12 AM 15.8 °F 4.2 °F 14.0 °F 93% 30.10 in 0.8 mi South 9.2 mph - N/A   Light Freezing Drizzle
9:16 AM 15.8 °F 2.7 °F 14.0 °F 93% 30.10 in 0.5 mi South 11.5 mph - N/A Fog Light Freezing Drizzle
9:18 AM 15.8 °F 2.7 °F 12.2 °F 86% 30.10 in 0.8 mi South 11.5 mph - N/A   Light Freezing Drizzle
9:19 AM 15.8 °F 2.1 °F 12.2 °F 86% 30.10 in 0.5 mi South 12.7 mph - N/A Fog Light Freezing Drizzle
9:22 AM 14.0 °F -0.2 °F 12.2 °F 93% 30.10 in 0.5 mi South 12.7 mph - N/A Fog Light Freezing Drizzle
9:23 AM 14.0 °F -0.2 °F 12.2 °F 93% 30.10 in 0.5 mi South 12.7 mph - N/A Fog Light Freezing Drizzle
9:25 AM 14.0 °F 0.5 °F 12.2 °F 93% 30.10 in 0.8 mi SSE 11.5 mph - N/A   Light Freezing Drizzle
9:26 AM 14.0 °F 0.5 °F 12.2 °F 93% 30.10 in 0.8 mi SSE 11.5 mph - N/A   Light Freezing Drizzle
9:30 AM 14.0 °F 2.0 °F 12.2 °F 93% 30.10 in 1.0 mi SSE 9.2 mph - N/A   Light Freezing Drizzle
9:33 AM 14.0 °F 1.2 °F 12.2 °F 93% 30.10 in 1.2 mi SSE 10.4 mph - N/A   Light Freezing Drizzle
9:36 AM 14.0 °F 1.2 °F 12.2 °F 93% 30.10 in 1.5 mi South 10.4 mph - N/A   Light Freezing Drizzle
9:39 AM 14.0 °F 2.9 °F 12.2 °F 93% 30.10 in 2.0 mi South 8.1 mph - N/A   Light Freezing Drizzle
9:41 AM 14.0 °F 2.0 °F 12.2 °F 93% 30.10 in 3.0 mi South 9.2 mph - N/A   Light Freezing Drizzle
9:55 AM 13.6 °F 1.6 °F 11.5 °F 91% 30.10 in 6.0 mi South 9.2 mph - 0.00 in   Light Freezing Drizzle
10:11 AM 14.0 °F 1.2 °F 12.2 °F 93% 30.09 in 5.0 mi South 10.4 mph - N/A   Overcast
10:27 AM 14.0 °F 0.5 °F 12.2 °F 93% 30.07 in 9.0 mi South 11.5 mph - N/A   Overcast
10:50 AM 14.0 °F -0.2 °F 12.2 °F 93% 30.07 in 10.0 mi South 12.7 mph - N/A   Overcast
10:55 AM 14.4 °F 1.6 °F 12.2 °F 91% 30.06 in 10.0 mi SSE 10.4 mph - 0.00 in   Overcast
11:24 AM 14.0 °F -0.2 °F 12.2 °F 93% 30.03 in 10.0 mi SE 12.7 mph - N/A   Scattered Clouds
11:55 AM 15.6 °F 1.8 °F 13.6 °F 92% 30.00 in 10.0 mi SE 12.7 mph - N/A   Clear
12:55 PM 17.6 °F 5.7 °F 15.8 °F 93% 29.94 in 10.0 mi SSE 10.4 mph - N/A   Clear
1:55 PM 22.6 °F 9.6 °F 20.8 °F 93% 29.88 in 10.0 mi South 15.0 mph - N/A   Clear
2:55 PM 25.0 °F 13.6 °F 18.5 °F 76% 29.85 in 10.0 mi South 12.7 mph - N/A   Clear
3:55 PM 26.1 °F 13.6 °F 17.8 °F 71% 29.81 in 10.0 mi SSW 16.1 mph - N/A   Clear
4:55 PM 26.6 °F 14.3 °F 18.1 °F 70% 29.77 in 10.0 mi SSW 16.1 mph 23.0 mph N/A   Clear
5:55 PM 27.3 °F 20.9 °F 18.5 °F 69% 29.75 in 10.0 mi SSW 5.8 mph - N/A   Partly Cloudy
6:55 PM 27.5 °F 16.3 °F 18.0 °F 67% 29.74 in 10.0 mi SW 13.8 mph - N/A   Clear
7:55 PM 28.8 °F 16.2 °F 19.4 °F 68% 29.72 in 10.0 mi WSW 18.4 mph 25.3 mph N/A   Clear
8:55 PM 29.8 °F 17.3 °F 21.0 °F 70% 29.71 in 10.0 mi WSW 19.6 mph 28.8 mph N/A   Clear
9:55 PM 30.4 °F 18.7 °F 22.5 °F 72% 29.72 in 10.0 mi WSW 17.3 mph - N/A   Clear
10:55 PM 30.2 °F 18.1 °F 22.1 °F 72% 29.71 in 10.0 mi West 18.4 mph - N/A   Clear
11:55 PM 29.5 °F 16.5 °F 21.2 °F 71% 29.70 in 10.0 mi West 20.7 mph 27.6 mph N/A   Clear